User: anonymous   Login
Location: Berg
(47.2344°N, 9.5296°E)
Time: 03:55:39
(UTC+00:00)
Language:

DELFI C3 - Orbit

View from above orbital plane
View from above orbital plane
View from above satellite
View from above satellite

Ground track
Ground track

The orbit data is extracted from the following two-line orbital elements,

1 32789U 08021G   21339.84666655  .00003458  00000-0  21634-3 0  9993
2 32789  97.3595   8.5580 0009844 272.7168  87.2935 15.10007668742789
Epoch (UTC): 05 December 2021 20:19:11
Eccentricity: 0.0009844
inclination: 97.3595°
perigee height: 529 km
apogee height: 543 km
right ascension of ascending node: 8.5580°
argument of perigee: 272.7168°
revolutions per day: 15.10007668
mean anomaly at epoch: 87.2935°
orbit number at epoch: 74278

The dashed part of the orbit path shows where the satellite is in the earth's shadow,  

DLR